2023-001H (55016 NORAD) Tracking and Keplerian Element Data

This shows tracking and keplerian element data for the satellite.

Feedback or suggestion? Click here.




ElementValue
Catalog55016
Name2023-001H
Epoch Orbit169
Epoch Day13.78813244
Epoch Year2023
RAAN75.7255
Inclination97.4998
Eccentricity0.001132
Argument of Perigee186.6186
Mean Anonmoly173.4897
Mean Motion15.12160251
Decay Rate7.661E-05
L11 55016U 23001H 23013.78813244 .00007661 00000+0 44713-3 0 9990
L22 55016 97.4998 75.7255 0011320 186.6186 173.4897 15.12160251 1698



Live tracking and technical data element details for 2023-001H (NORAD 55016). 2023-001H can be tracked NOW for your location showing map with azimuth and elevation plus other details from your city location.







IsCatalogInMostPopularTable: catalog: 55016, numindb: 3
Update: records affected: 1



GetName: 55016 2023-001H

Hit Count: updated at: Tue, 07 Feb 2023 15:04:23 GMT